{"data":{"norad_id":59481,"epoch":"2026-09-22T14:56:10.226112Z","epoch_age_seconds":82702,"freshness":"FRESH","line1":"1 59481U 24070A   26265.62234058  .00000027  00000+0  33037-4 0  9999","line2":"2 59481  98.7204 272.2616 0005593  50.8579 309.3094 14.20750678126930","mean_motion":14.20750678,"eccentricity":0.0005593,"inclination_deg":98.7204,"raan_deg":272.2616,"arg_perigee_deg":50.8579,"mean_anomaly_deg":309.3094,"bstar":3.3037e-5,"rev_number":12693,"period_min":101.35486980918,"perigee_km":818.78768421716,"apogee_km":826.84266932209,"semimajor_km":7200.9521767696,"source":"CELESTRAK","updated_at":"2026-09-23T09:00:19.383718Z"}}